Regional Weather Roundup
Issued by NWS

Home | Current Version | Previous Version | Graphics & Text | Print | Product List | Glossary On
Versions: 1 2 3 4 5 6 7 8 9 10 11 12 13 14 15 16 17 18 19 20 21 22 23 24 25 26 27 28 29 30 31 32 33 34 35 36 37 38 39 40 41 42 43 44 45 46 47 48 49 50
000
ASUS45 KCYS 022010
RWRWY

WYOMING REGIONAL WEATHER ROUNDUP
NATIONAL WEATHER SERVICE CHEYENNE WY
200 PM MDT TUE JUN 02 2015

NOTE:  "FAIR" INDICATES FEW OR NO CLOUDS BELOW 12,000 FEET
WITH NO SIGNIFICANT WEATHER AND/OR OBSTRUCTIONS TO VISIBILITY.

WYZ001-022100-
...YELLOWSTONE NATIONAL PARK...

CITY           SKY/WX    TMP DP  RH WIND       PRES   REMARKS
LK YELLOWSTONE   N/A     51  37  58 CALM      30.15F
W YELLOWSTONE  NOT AVBL

$$
WYZ002>013-054>058-071-098>099-022100-
...NORTHERN WYOMING...

CITY           SKY/WX    TMP DP  RH WIND       PRES   REMARKS
JACKSON        LGT RAIN  61  39  44 SW5G18    30.04F
CODY           MOSUNNY   73  43  33 S10G16    29.89S
GREYBULL       SUNNY     77  40  26 CALM      29.85F
WORLAND        SUNNY     79  44  28 VRB7      29.85F
SHERIDAN       SUNNY     72  54  53 NW3       29.88F
BUFFALO        SUNNY     72  50  45 N8        29.92F
GILLETTE       SUNNY     76  50  40 N9        29.89S
HULETT         FAIR      73  46  38 NW10G18   29.90S
NEWCASTLE      FAIR      77  43  29 MISG      29.88F

$$
WYZ014>020-022>026-101>103-022100-
...CENTRAL WYOMING...

CITY           SKY/WX    TMP DP  RH WIND       PRES   REMARKS
BIG PINEY      MOSUNNY   67  37  33 CALM      30.04F
PINEDALE       CLOUDY    64  34  32 CALM      30.05F
DUBOIS         PTSUNNY   63  34  34 E5        30.03F
LANDER         MOSUNNY   73  48  41 N6        29.91F
RIVERTON       SUNNY     75  39  27 VRB7      29.92F
CASPER         MOSUNNY   80  42  25 SW13G21   29.91F
DOUGLAS        TSTM      61  49  64 N15       29.91S

$$
WYZ021-027>030-104>119-022100-
...SOUTHERN WYOMING...

CITY           SKY/WX    TMP DP  RH WIND       PRES   REMARKS
EVANSTON       SUNNY     70  36  28 W18       30.08S
KEMMERER       MOSUNNY   70  32  24 SW24G33   30.08F
FORT BRIDGER   SUNNY     75  27  16 W21G29    30.09S
ROCK SPRINGS   SUNNY     73  31  21 W15G22    30.04F
DIXON          FAIR      77  27  15 W15G21    30.06F
RAWLINS        MOSUNNY   76  30  18 SW16G26   30.03F
SARATOGA       FAIR      75  25  15 W14G28    30.07S
LARAMIE        MOSUNNY   76  30  18 SW18G26   30.05F
CHEYENNE       MOSUNNY   81  33  17 W20G25    29.97F
TORRINGTON     SUNNY     80  59  48 SE6       29.84F
PINE BLUFFS    FAIR      81  45  28 N3        29.91F

$$



USA.gov is the U.S. government's official web portal to all federal, state and local government web resources and services.